Tracking 19827 objects as of 21-Aug-2019
HD Live streaming from Space Station
objects crossing your sky now

COSMOS 1030 DEB

Track COSMOS 1030 DEB now!


NORAD ID: 39447
Int'l Code: 1978-083T
Perigee: 4,037.6 km
Apogee: 36,360.5 km
Inclination: 68.0 °
Period: 718.4 minutes
Semi major axis: 26570 km
RCS: Unknown
Launch date: September 6, 1978
Source: Commonwealth of Independent States (former USSR) (CIS)
Launch site: PLESETSK MISSILE AND SPACE COMPLEX (PKMTR)

Note: This is SATELLITE DEBRIS
aabbcc
Your satellite tracking list
Your tracking list is empty




NASA's NSSDC Master Catalog

Two Line Element Set (TLE):
1 39447U 78083T   19231.70044549 +.00000149 +00000-0 +00000-0 0  9996
2 39447 067.9748 042.4973 6082576 033.0175 353.3468 02.00453404032786
Source of the keplerian elements: AFSPC